Flag for China Weather past 2 weeks in Tianjin, Tianjin Municipality, China

Now
82 °F

Passing clouds.


Feels Like: 80 °F
Forecast: 50 / 78 °F
Wind: 15 mph from West

Location: Tianjin / Zhangguizhu

Current Time: Apr 21, 2015 at 3:21:06 PM

Latest Report: Apr 21, 2015 at 3:00 PM


Visibility: N/A

Pressure: 29.68 "Hg

Humidity: 13%

Dew point: 27 °F

Location of TianjinLocation

Historic Weather in Tianjin — Graph

°F

Tianjin temperature yesterday

Maximum temperature yesterday: 70 °F (at 1:30 PM)
Minimum temperature yesterday: 45 °F (at 5:00 AM)
Average temperature yesterday: 60 °F

Past Weeks' High & Low Weather Summary

 TemperatureHumidityPressure
High82 °F (Apr 21, 2:00 PM)94% (Apr 12, 12:30 AM)30.57 "Hg (Apr 12, 12:30 AM)
Low34 °F (Apr 7, 4:00 AM)9% (Apr 16, 2:00 PM)29.33 "Hg (Apr 15, 4:00 PM)
Average56 °F51%30.03 "Hg
* Reported Apr 6 2:00 PM — Apr 21 2:00 PM, Tianjin, Weather by CustomWeather, © 2015

Note: Actual official high and low records may vary slightly from our data, if they occured in-between our weather recording intervals... More about our weather records

Advertising

Tianjin weather history for previous 24 hours

 ConditionsComfort  
Time TempWeatherWind HumidityBarometerVisibility
2:00 PM
Tue, Apr 21
82 °FClear.10 mph14%29.71 "Hg4 mi
1:30 PM81 °FClear.13 mph20%29.74 "Hg4 mi
1:00 PM79 °FClear.10 mph26%29.77 "Hg4 mi
12:30 PM79 °FClear.10 mph24%29.77 "Hg4 mi
12:00 PM77 °FHaze.10 mph28%29.80 "Hg3 mi
11:30 AM73 °FHaze.10 mph33%29.80 "Hg3 mi
11:00 AM72 °FHaze.10 mph36%29.83 "Hg3 mi
10:30 AM70 °FHaze.10 mph38%29.83 "Hg3 mi
10:00 AM68 °FHaze.10 mph46%29.83 "Hg3 mi
9:30 AM66 °FHaze.8 mph49%29.86 "Hg3 mi
9:00 AM63 °FHaze.8 mph52%29.86 "Hg3 mi
8:30 AM61 °FHaze.10 mph52%29.83 "Hg3 mi
8:00 AM59 °FHaze.13 mph55%29.83 "Hg2 mi
7:30 AM57 °FHaze.10 mph59%29.83 "Hg2 mi
7:00 AM57 °FHaze.13 mph59%29.83 "Hg2 mi
6:30 AM55 °FHaze.13 mph59%29.83 "Hg3 mi
6:00 AM55 °FHaze.13 mph59%29.83 "Hg3 mi
5:00 AM55 °FClear.13 mph59%29.83 "Hg4 mi
4:30 AM57 °FClear.13 mph55%29.86 "Hg4 mi
4:00 AM57 °FClear.15 mph51%29.86 "Hg4 mi
3:30 AM57 °FClear.15 mph55%29.86 "Hg4 mi
3:00 AM59 °FClear.13 mph48%29.86 "Hg4 mi
2:30 AM59 °FClear.13 mph48%29.86 "Hg10 mi
2:00 AM59 °FClear.15 mph48%29.89 "Hg10 mi
1:30 AM61 °FClear.15 mph45%29.89 "Hg10 mi
1:00 AM61 °FClear.13 mph42%29.89 "Hg10 mi
12:30 AM61 °FClear.10 mph45%29.92 "Hg10 mi
12:00 AM61 °FClear.13 mph45%29.92 "Hg10 mi
11:30 PM
Mon, Apr 20
61 °FClear.13 mph45%29.92 "Hg10 mi
11:00 PM63 °FPassing clouds.15 mph42%29.92 "HgN/A
10:30 PM63 °FClear.10 mph42%29.92 "Hg10 mi
10:00 PM63 °FClear.13 mph45%29.92 "Hg10 mi
9:30 PM63 °FClear.13 mph45%29.92 "Hg10 mi
9:00 PM64 °FClear.13 mph43%29.92 "Hg10 mi
8:30 PM64 °FPassing clouds.13 mph40%29.92 "HgN/A
8:00 PM66 °FClear.10 mph37%29.92 "Hg10 mi
7:30 PM66 °FClear.10 mph35%29.89 "Hg10 mi
7:00 PM66 °FPassing clouds.10 mph30%29.89 "HgN/A
6:30 PM68 °FSunny.10 mph26%29.89 "Hg10 mi
6:00 PM68 °FSunny.10 mph24%29.89 "Hg10 mi
5:30 PM70 °FSunny.10 mph25%29.89 "Hg10 mi
5:00 PM70 °FPassing clouds.10 mph23%29.89 "HgN/A
4:30 PM70 °FSunny.10 mph23%29.89 "Hg10 mi
4:00 PM70 °FPassing clouds.10 mph25%29.89 "HgN/A
3:30 PM70 °FPassing clouds.10 mph23%29.92 "HgN/A
3:00 PM70 °FSunny.8 mph20%29.92 "Hg10 mi
Weather by CustomWeather, © 2015

See weather overviewHow to use our weather pages